Back to catalog

FENGYUN 1C DEB

AlivePO
NORAD 29758·DEBRIS·🇨🇳 China

Launched May 10, 1999 from Taiyuan Satellite Launch Center

Loading…

Next Passes (next 24 hours)

TLE

FreshSource: Space-Track

Epoch: Sep 14, 2026, 07:23 UTC

1 29758U 99025AY  26257.30824472  .00004379  00000-0  12707-2 0  9990
2 29758  98.8670  28.9325 0020552 208.4108 181.5686 14.44781153 16478

Track FENGYUN 1C DEB in real time with AllMySat

Download on the App Store